Regional Weather Roundup
Issued by NWS Little Rock, AR

Current Version | Previous Version | Text Only | Print | Product List | Glossary On
Versions: 1 2 3 4 5 6 7 8 9 10 11 12 13 14 15 16 17 18 19 20 21 22 23 24 25 26 27 28 29 30 31
000
ASUS44 KLZK 201605
RWRLZK

WEATHER ROUNDUP FOR ARKANSAS
NATIONAL WEATHER SERVICE LITTLE ROCK AR
1100 AM CDT THU JUL 20 2017

NOTE: "FAIR" INDICATES FEW OR NO CLOUDS BELOW 12,000 FEET WITH NO
SIGNIFICANT WEATHER AND/OR OBSTRUCTIONS TO VISIBILITY.

ARZ001-003-010-029-201700-
NORTHWEST ARKANSAS

CITY           SKY/WX    TMP DP  RH WIND       PRES   REMARKS
FAYETTEVILLE   SUNNY     88  74  63 SW10      30.15S HX  96
FORT SMITH     SUNNY     90  75  61 SW9       30.11F HX 100
HARRISON       SUNNY     88  73  61 W6        30.17R HX  95
BENTONVILLE    SUNNY     88  73  62 SW9G16    30.17R HX  96
ROGERS         SUNNY     88  73  61 SW13      30.17R HX  95
SILOAM SPGS    SUNNY     90  72  55 SW14G20   30.15R HX  96
HIGHFILL       SUNNY     89  74  60 SW10      30.16R HX  98
SPRINGDALE     SUNNY     90  73  58 SW8G21    30.17S HX  98
$$

ARZ004-005-016-201700-
NORTH CENTRAL ARKANSAS

CITY           SKY/WX    TMP DP  RH WIND       PRES   REMARKS
BATESVILLE     SUNNY     91  75  59 W8        30.12F HX 102
FLIPPIN        SUNNY     90  72  55 W7        30.12R HX  96
MTN HOME       SUNNY     88  76  67 VRB3      30.14R HX  99
$$

ARZ040-041-201700-
WEST CENTRAL ARKANSAS

CITY           SKY/WX    TMP DP  RH WIND       PRES   REMARKS
MENA           SUNNY     90  79  70 W7        30.16S HX 105
MOUNT IDA      SUNNY     90  72  55 VRB6      30.12S HX  97
$$

ARZ009-017-025-026-028-201700-
NORTHEAST ARKANSAS

CITY           SKY/WX    TMP DP  RH WIND       PRES   REMARKS
JONESBORO      SUNNY     92  77  61 W10       30.11F HX 105
WALNUT RIDGE   SUNNY     91  75  59 CALM      30.11S HX 102
BLYTHEVILLE    SUNNY     90  75  61 W8        30.12F HX 100
$$

ARZ022-023-033-042-044-201700-
CENTRAL ARKANSAS

CITY           SKY/WX    TMP DP  RH WIND       PRES   REMARKS
LITTLE ROCK    MOSUNNY   91  76  61 W6        30.12R HX 103
N LITTLE ROCK    N/A     89  77  67 W5        30.11R HX 102
JACKSONVILLE   SUNNY     92  78  63 W3        30.12R HX 107
CONWAY           N/A     93  75  55 W9        30.10S HX 104
SEARCY         SUNNY     92  80  68 MISG      30.14S HX 110
HOT SPRINGS    SUNNY     92  76  59 SW9       30.13F HX 104
RUSSELLVILLE   SUNNY     89  76  65 CALM      30.11F HX 100
CLINTON        FAIR      90  77  66 SW6       30.13S HX 102
$$

ARZ036-201700-
EAST ARKANSAS

CITY           SKY/WX    TMP DP  RH WIND       PRES   REMARKS
WEST MEMPHIS   SUNNY     90  76  63 VRB6      30.12S HX 101
$$

ARZ050-053-066-070-073-201700-
SOUTHWEST ARKANSAS

CITY           SKY/WX    TMP DP  RH WIND       PRES   REMARKS
ARKADELPHIA    FAIR      91  78  65 SW5       30.13S HX 106
CAMDEN         SUNNY     91  75  59 W5        30.13R HX 102
TEXARKANA      SUNNY     90  74  59 SW6       30.14R HX  99
EL DORADO      SUNNY     91  75  59 S5        30.14S HX 101
DE QUEEN       SUNNY     90  78  68 W8G18     30.12S HX 104
$$

ARZ056-057-069-201700-
SOUTHEAST ARKANSAS

CITY           SKY/WX    TMP DP  RH WIND       PRES   REMARKS
PINE BLUFF     SUNNY     91  76  61 SW5       30.13R HX 103
STUTTGART      SUNNY     93  70  46 W8        30.14R HX  99
MONTICELLO     SUNNY     91  73  55 W7        30.13S HX  99

$$






USA.gov is the U.S. government's official web portal to all federal, state and local government web resources and services.